NORTHERN NASSAU  -  Areal Flood Advisory Areal Flood Advisory     Flash Flood Watch Flash Flood Watch     Rip Current Statement Rip Current Statement        NORTHERN QUEENS  -  Areal Flood Advisory Areal Flood Advisory     Flash Flood Watch Flash Flood Watch     Rip Current Statement Rip Current Statement        SOUTHERN NASSAU  -  Areal Flood Advisory Areal Flood Advisory     Flash Flood Watch Flash Flood Watch     Rip Current Statement Rip Current Statement        SOUTHERN QUEENS  -  Areal Flood Advisory Areal Flood Advisory     Flash Flood Watch Flash Flood Watch     Rip Current Statement Rip Current Statement        NORTHEAST SUFFOLK  -  Rip Current Statement Rip Current Statement        NORTHWEST SUFFOLK  -  Rip Current Statement Rip Current Statement        SOUTHEAST SUFFOLK  -  Rip Current Statement Rip Current Statement        SOUTHWEST SUFFOLK  -  Rip Current Statement Rip Current Statement      

Active alerts

Northern Queens
  Details for Northern Queens Areal Flood Advisory  +2 additional alerts
Southern Queens
  Details for Southern Queens Areal Flood Advisory  +2 additional alerts
Northern Nassau
  Details for Northern Nassau Areal Flood Advisory  +2 additional alerts
Southern Nassau
  Details for Southern Nassau Areal Flood Advisory  +2 additional alerts
Northwest Suffolk
  Details for Northwest Suffolk Rip Current Statement
Southwest Suffolk
  Details for Southwest Suffolk Rip Current Statement
Northeast Suffolk
  Details for Northeast Suffolk Rip Current Statement
Southeast Suffolk
  Details for Southeast Suffolk Rip Current Statement


WXM80 ListenWXM80 Stop

You find our weather info also at:

UK Metoffice

WeatherCloud

Weather Underground

Northeastern Weather Network

AWEKAS

Citizen Weather Observer Program (CWOP)

HAMweather, WeatherForYou, PWS Weather


Weather Underground History page Text

Daily Summary for February 26, 2018 Units:  English    Metric   Both
« Previous Day
Next Day »
Daily Weekly Monthly Yearly Custom
  High: Low: Average:
Temperature: 49.0 °F 36.9 °F 43.7 °F
Dew Point: 43.8 °F 30.1 °F 38.5 °F
Humidity: 99 % 59 % 83 %
Wind Speed: 8.3 mph 0.0 mph 1.3 mph
Wind Gust: 12.7 mph - -
Wind:- - West
Pressure: 30.00 in 29.76 in -
Precipitation: 0.00 in    
Historical Graphs
 
 
Tabular Data for February 26, 2018
Time Temperature Dew Point Pressure Wind Wind Speed Wind Gust Humidity Rainfall Rate (Hourly)
00:04 42.4 °F 41.9 °F 29.77 in Calm   3.5 mph 98 % 0.00 in
00:09 42.4 °F 41.9 °F 29.76 in West 0.9 mph 2.3 mph 98 % 0.00 in
00:14 42.3 °F 41.8 °F 29.76 in West 2.9 mph 4.6 mph 98 % 0.00 in
00:19 42.3 °F 41.8 °F 29.76 in Calm   1.2 mph 98 % 0.00 in
00:24 42.3 °F 41.8 °F 29.76 in SW 2.8 mph 5.0 mph 98 % 0.00 in
00:29 42.3 °F 41.8 °F 29.77 in WNW 2.1 mph 3.5 mph 98 % 0.00 in
00:34 42.2 °F 41.7 °F 29.78 in WNW 0.5 mph 3.5 mph 98 % 0.00 in
00:39 42.2 °F 41.7 °F 29.78 in West 2.2 mph 3.5 mph 98 % 0.00 in
00:44 42.2 °F 41.7 °F 29.78 in West 3.5 mph 5.8 mph 98 % 0.00 in
00:49 42.2 °F 41.7 °F 29.77 in WSW 2.0 mph 4.6 mph 98 % 0.00 in
00:54 42.1 °F 41.6 °F 29.78 in West 0.6 mph 3.5 mph 98 % 0.00 in
00:59 42.1 °F 41.6 °F 29.77 in Calm   2.0 mph 98 % 0.00 in
01:04 42.1 °F 41.6 °F 29.77 in West 2.1 mph 4.6 mph 98 % 0.00 in
01:09 42.1 °F 41.6 °F 29.77 in WSW 3.3 mph 4.6 mph 98 % 0.00 in
01:15 42.1 °F 41.6 °F 29.77 in West 1.2 mph 3.5 mph 98 % 0.00 in
01:20 42.1 °F 41.6 °F 29.77 in WSW 3.0 mph 4.6 mph 98 % 0.00 in
01:25 42.1 °F 41.6 °F 29.77 in West 1.9 mph 3.5 mph 98 % 0.00 in
01:30 42.1 °F 41.6 °F 29.77 in West 1.9 mph 3.5 mph 98 % 0.00 in
01:35 42.1 °F 41.6 °F 29.77 in WSW 0.4 mph 4.6 mph 98 % 0.00 in
01:40 42.1 °F 41.6 °F 29.77 in WSW 4.0 mph 4.6 mph 98 % 0.00 in
01:45 42.1 °F 41.6 °F 29.77 in West 2.3 mph 4.6 mph 98 % 0.00 in
01:50 42.1 °F 41.6 °F 29.78 in WSW 4.3 mph 4.6 mph 98 % 0.00 in
01:55 42.1 °F 41.6 °F 29.78 in West 3.1 mph 6.9 mph 98 % 0.00 in
02:00 42.1 °F 41.6 °F 29.79 in West 0.3 mph   98 % 0.00 in
02:05 42.1 °F 41.6 °F 29.78 in West 2.9 mph 4.0 mph 98 % 0.00 in
02:10 42.2 °F 41.7 °F 29.78 in West 2.7 mph 3.5 mph 98 % 0.00 in
02:15 42.2 °F 41.7 °F 29.78 in West 2.6 mph 3.0 mph 98 % 0.00 in
02:20 42.2 °F 41.7 °F 29.77 in WSW 2.1 mph 3.5 mph 98 % 0.00 in
02:25 42.2 °F 41.7 °F 29.77 in West 3.2 mph 5.8 mph 98 % 0.00 in
02:30 42.2 °F 41.7 °F 29.77 in West 2.2 mph 4.0 mph 98 % 0.00 in
02:35 42.2 °F 41.7 °F 29.77 in West 0.1 mph 2.0 mph 98 % 0.00 in
02:40 42.2 °F 41.7 °F 29.77 in West 1.1 mph 2.3 mph 98 % 0.00 in
02:45 42.2 °F 41.7 °F 29.78 in West 0.7 mph 2.3 mph 98 % 0.00 in
02:50 42.2 °F 41.7 °F 29.77 in West 2.2 mph 7.0 mph 98 % 0.00 in
02:55 42.2 °F 41.7 °F 29.77 in WSW 0.3 mph 3.5 mph 98 % 0.00 in
03:01 42.3 °F 41.8 °F 29.77 in NW 1.2 mph 4.0 mph 98 % 0.00 in
03:06 42.3 °F 41.8 °F 29.77 in WNW 2.0 mph 5.0 mph 98 % 0.00 in
03:11 42.3 °F 41.8 °F 29.77 in West 1.9 mph 3.5 mph 98 % 0.00 in
03:16 42.3 °F 41.8 °F 29.78 in West 2.0 mph 8.0 mph 98 % 0.00 in
03:21 42.4 °F 41.9 °F 29.77 in West 2.0 mph 5.0 mph 98 % 0.00 in
03:26 42.4 °F 41.9 °F 29.77 in West 2.7 mph 4.6 mph 98 % 0.00 in
03:31 42.4 °F 41.9 °F 29.77 in West 1.0 mph 4.0 mph 98 % 0.00 in
03:36 42.4 °F 41.9 °F 29.77 in West 2.0 mph 6.0 mph 98 % 0.00 in
03:41 42.4 °F 41.9 °F 29.78 in West 2.0 mph 5.0 mph 98 % 0.00 in
03:46 42.4 °F 41.9 °F 29.77 in West 0.7 mph 4.6 mph 98 % 0.00 in
03:51 42.4 °F 41.9 °F 29.77 in West 0.5 mph 1.2 mph 98 % 0.00 in
03:56 42.4 °F 41.9 °F 29.77 in West 1.7 mph 3.5 mph 98 % 0.00 in
04:01 42.4 °F 41.9 °F 29.77 in West 1.9 mph 4.0 mph 98 % 0.00 in
04:06 42.4 °F 41.9 °F 29.77 in West 1.8 mph 3.5 mph 98 % 0.00 in
04:11 42.5 °F 42.0 °F 29.77 in WNW 0.9 mph 3.5 mph 98 % 0.00 in
04:16 42.5 °F 42.0 °F 29.77 in WNW 0.1 mph 1.2 mph 98 % 0.00 in
04:21 42.5 °F 42.0 °F 29.78 in Calm     98 % 0.00 in
04:26 42.4 °F 41.9 °F 29.77 in WNW 0.5 mph 2.3 mph 98 % 0.00 in
04:31 42.4 °F 41.9 °F 29.77 in WNW 0.6 mph 2.3 mph 98 % 0.00 in
04:37 42.4 °F 41.9 °F 29.78 in Calm     98 % 0.00 in
04:42 42.4 °F 41.9 °F 29.78 in WNW 1.5 mph 3.5 mph 98 % 0.00 in
04:47 42.4 °F 41.9 °F 29.77 in Calm     98 % 0.00 in
04:52 42.4 °F 41.9 °F 29.78 in Calm     98 % 0.00 in
04:57 42.4 °F 41.9 °F 29.78 in Calm     98 % 0.00 in
05:02 42.4 °F 41.9 °F 29.78 in Calm     98 % 0.00 in
05:07 42.4 °F 41.9 °F 29.78 in Calm     98 % 0.00 in
05:12 42.3 °F 41.8 °F 29.78 in Calm     98 % 0.00 in
05:17 42.3 °F 41.8 °F 29.78 in Calm     98 % 0.00 in
05:22 42.2 °F 41.7 °F 29.78 in Calm     98 % 0.00 in
05:27 42.0 °F 41.5 °F 29.78 in Calm     98 % 0.00 in
05:32 41.9 °F 41.4 °F 29.78 in Calm     98 % 0.00 in
05:37 41.8 °F 41.3 °F 29.78 in Calm     98 % 0.00 in
05:42 41.6 °F 41.1 °F 29.77 in Calm     98 % 0.00 in
05:47 41.5 °F 41.0 °F 29.78 in Calm     98 % 0.00 in
05:52 41.3 °F 40.8 °F 29.79 in Calm     98 % 0.00 in
05:57 41.2 °F 40.7 °F 29.80 in Calm     98 % 0.00 in
06:03 41.1 °F 40.6 °F 29.80 in Calm     98 % 0.00 in
06:08 41.0 °F 40.5 °F 29.80 in Calm     98 % 0.00 in
06:13 40.9 °F 40.4 °F 29.79 in Calm     98 % 0.00 in
06:18 40.8 °F 40.3 °F 29.79 in Calm     98 % 0.00 in
06:23 40.7 °F 40.2 °F 29.80 in Calm     98 % 0.00 in
06:28 40.5 °F 40.0 °F 29.81 in WNW 1.6 mph 2.3 mph 98 % 0.00 in
06:33 40.5 °F 40.0 °F 29.81 in Calm     98 % 0.00 in
06:38 40.4 °F 39.9 °F 29.81 in Calm     98 % 0.00 in
06:43 40.3 °F 39.8 °F 29.81 in Calm     98 % 0.00 in
06:48 40.3 °F 39.8 °F 29.81 in Calm     98 % 0.00 in
06:53 40.3 °F 39.8 °F 29.81 in Calm     98 % 0.00 in
06:58 40.3 °F 39.8 °F 29.82 in Calm   1.2 mph 98 % 0.00 in
07:03 40.3 °F 39.8 °F 29.83 in WNW 1.7 mph 3.5 mph 98 % 0.00 in
07:08 40.3 °F 39.8 °F 29.83 in WNW 1.5 mph 2.3 mph 98 % 0.00 in
07:13 40.5 °F 40.0 °F 29.83 in WNW 0.2 mph 2.0 mph 98 % 0.00 in
07:18 40.7 °F 40.4 °F 29.83 in Calm   2.3 mph 99 % 0.00 in
07:23 40.8 °F 40.5 °F 29.83 in WNW 0.3 mph 2.3 mph 99 % 0.00 in
07:28 40.9 °F 40.6 °F 29.84 in Calm   1.2 mph 99 % 0.00 in
07:33 41.1 °F 40.8 °F 29.84 in Calm     99 % 0.00 in
07:38 41.2 °F 40.7 °F 29.85 in Calm     98 % 0.00 in
07:43 41.3 °F 41.0 °F 29.84 in Calm     99 % 0.00 in
07:48 41.5 °F 41.2 °F 29.85 in WNW 0.7 mph 2.0 mph 99 % 0.00 in
07:54 41.6 °F 41.3 °F 29.86 in WNW 0.1 mph 2.0 mph 99 % 0.00 in
07:59 41.8 °F 41.3 °F 29.86 in Calm     98 % 0.00 in
08:04 42.0 °F 41.7 °F 29.87 in Calm     99 % 0.00 in
08:09 42.1 °F 41.8 °F 29.87 in Calm     99 % 0.00 in
08:14 42.2 °F 41.9 °F 29.86 in Calm     99 % 0.00 in
08:19 42.3 °F 42.0 °F 29.86 in Calm     99 % 0.00 in
08:24 42.5 °F 42.2 °F 29.87 in Calm     99 % 0.00 in
08:29 42.6 °F 42.3 °F 29.87 in Calm     99 % 0.00 in
08:34 42.8 °F 42.5 °F 29.86 in Calm     99 % 0.00 in
08:39 42.9 °F 42.6 °F 29.85 in Calm     99 % 0.00 in
08:44 43.1 °F 42.8 °F 29.85 in Calm     99 % 0.00 in
08:49 43.3 °F 43.0 °F 29.86 in Calm     99 % 0.00 in
08:54 43.3 °F 43.0 °F 29.86 in Calm     99 % 0.00 in
08:59 43.4 °F 43.1 °F 29.86 in Calm     99 % 0.00 in
09:04 43.5 °F 43.2 °F 29.86 in Calm   1.2 mph 99 % 0.00 in
09:09 43.5 °F 43.2 °F 29.86 in Calm     99 % 0.00 in
09:14 43.6 °F 43.3 °F 29.86 in NW 1.2 mph 3.5 mph 99 % 0.00 in
09:19 43.7 °F 43.4 °F 29.86 in Calm   3.5 mph 99 % 0.00 in
09:24 43.8 °F 43.5 °F 29.86 in Calm     99 % 0.00 in
09:29 43.8 °F 43.5 °F 29.87 in NW 0.3 mph 4.0 mph 99 % 0.00 in
09:34 43.9 °F 43.6 °F 29.88 in Calm   1.2 mph 99 % 0.00 in
09:39 43.9 °F 43.6 °F 29.87 in Calm     99 % 0.00 in
09:45 44.1 °F 43.8 °F 29.87 in WNW 2.6 mph 4.0 mph 99 % 0.00 in
09:50 44.1 °F 43.8 °F 29.88 in WNW 0.3 mph 1.2 mph 99 % 0.00 in
09:55 44.1 °F 43.6 °F 29.89 in WNW 0.4 mph 2.3 mph 98 % 0.00 in
10:00 44.1 °F 43.6 °F 29.88 in WNW 0.1 mph 3.5 mph 98 % 0.00 in
10:05 44.1 °F 43.6 °F 29.88 in WNW 4.2 mph 6.9 mph 98 % 0.00 in
10:10 44.0 °F 43.5 °F 29.89 in West 4.2 mph 9.2 mph 98 % 0.00 in
10:15 43.9 °F 43.4 °F 29.89 in NW 5.5 mph 9.0 mph 98 % 0.00 in
10:20 43.8 °F 43.3 °F 29.89 in WNW 0.2 mph 3.5 mph 98 % 0.00 in
10:25 43.7 °F 43.2 °F 29.89 in West 2.7 mph 4.6 mph 98 % 0.00 in
10:30 43.7 °F 43.2 °F 29.88 in West 1.0 mph 3.5 mph 98 % 0.00 in
10:35 43.8 °F 43.3 °F 29.88 in WNW 1.5 mph 3.5 mph 98 % 0.00 in
10:40 43.9 °F 43.4 °F 29.88 in NW 0.1 mph 4.6 mph 98 % 0.00 in
10:45 44.0 °F 43.5 °F 29.89 in WNW 0.6 mph 6.9 mph 98 % 0.00 in
10:50 43.9 °F 43.4 °F 29.89 in WNW 2.9 mph 5.0 mph 98 % 0.00 in
10:55 43.9 °F 43.4 °F 29.88 in WNW 3.1 mph 5.8 mph 98 % 0.00 in
11:00 43.9 °F 43.4 °F 29.88 in West 1.0 mph 4.0 mph 98 % 0.00 in
11:05 44.0 °F 43.5 °F 29.89 in WNW 2.6 mph 6.0 mph 98 % 0.00 in
11:10 44.1 °F 43.3 °F 29.89 in WNW 1.5 mph 6.9 mph 97 % 0.00 in
11:15 44.2 °F 43.4 °F 29.89 in West 2.8 mph 4.6 mph 97 % 0.00 in
11:20 44.2 °F 43.1 °F 29.89 in NW 1.0 mph 2.0 mph 96 % 0.00 in
11:25 44.4 °F 43.3 °F 29.88 in WNW 2.4 mph 5.0 mph 96 % 0.00 in
11:30 44.5 °F 43.2 °F 29.88 in WNW 3.2 mph 4.6 mph 95 % 0.00 in
11:35 44.7 °F 43.1 °F 29.88 in WNW 2.0 mph 5.0 mph 94 % 0.00 in
11:40 44.9 °F 43.0 °F 29.89 in WNW 3.0 mph 5.0 mph 93 % 0.00 in
11:45 45.1 °F 42.9 °F 29.88 in WNW 1.0 mph 7.0 mph 92 % 0.00 in
11:50 45.3 °F 42.8 °F 29.88 in Calm   3.0 mph 91 % 0.00 in
11:55 45.5 °F 42.2 °F 29.88 in WSW 1.9 mph 5.8 mph 88 % 0.00 in
12:01 45.8 °F 42.2 °F 29.88 in South 2.8 mph 6.9 mph 87 % 0.00 in
12:06 46.1 °F 41.8 °F 29.88 in WSW 1.4 mph 3.5 mph 85 % 0.00 in
12:11 46.3 °F 41.7 °F 29.88 in WSW 3.2 mph 5.8 mph 84 % 0.00 in
12:16 46.4 °F 41.2 °F 29.88 in West 3.5 mph 6.0 mph 82 % 0.00 in
12:21 46.6 °F 40.8 °F 29.88 in WSW 1.7 mph 5.8 mph 80 % 0.00 in
12:26 46.7 °F 40.2 °F 29.88 in WNW 2.7 mph 4.6 mph 78 % 0.00 in
12:31 46.9 °F 39.7 °F 29.88 in WNW 3.7 mph 5.8 mph 76 % 0.00 in
12:36 47.1 °F 39.6 °F 29.88 in NW 4.3 mph 6.9 mph 75 % 0.00 in
12:41 47.4 °F 39.9 °F 29.88 in NW 1.4 mph 6.9 mph 75 % 0.00 in
12:46 47.6 °F 39.7 °F 29.88 in SW 2.4 mph 6.0 mph 74 % 0.00 in
12:51 47.8 °F 40.3 °F 29.87 in WSW 1.4 mph 4.6 mph 75 % 0.00 in
12:56 47.9 °F 39.7 °F 29.87 in West 3.7 mph 8.1 mph 73 % 0.00 in
13:01 48.0 °F 39.4 °F 29.87 in WSW 4.9 mph 5.0 mph 72 % 0.00 in
13:06 48.0 °F 39.4 °F 29.87 in SW 1.4 mph 4.6 mph 72 % 0.00 in
13:11 48.0 °F 39.4 °F 29.87 in WSW 4.3 mph 8.1 mph 72 % 0.00 in
13:16 47.9 °F 39.7 °F 29.87 in SW 2.2 mph 3.5 mph 73 % 0.00 in
13:21 47.9 °F 39.7 °F 29.87 in WSW 5.0 mph 7.0 mph 73 % 0.00 in
13:27 47.8 °F 37.7 °F 29.86 in WNW 4.4 mph 5.8 mph 68 % 0.00 in
13:32 47.8 °F 38.1 °F 29.86 in WSW 1.9 mph 6.9 mph 69 % 0.00 in
13:37 47.8 °F 37.0 °F 29.86 in WNW 3.3 mph 8.1 mph 66 % 0.00 in
13:42 47.8 °F 37.7 °F 29.86 in West 0.9 mph 5.8 mph 68 % 0.00 in
13:47 47.9 °F 37.5 °F 29.86 in West 3.1 mph 4.6 mph 67 % 0.00 in
13:52 48.1 °F 38.4 °F 29.86 in WSW 0.6 mph 5.8 mph 69 % 0.00 in
13:57 48.2 °F 37.0 °F 29.86 in West 0.8 mph 6.9 mph 65 % 0.00 in
14:02 48.2 °F 37.4 °F 29.85 in West 0.7 mph 3.5 mph 66 % 0.00 in
14:07 48.3 °F 37.1 °F 29.85 in WSW 0.8 mph 3.0 mph 65 % 0.00 in
14:12 48.5 °F 36.5 °F 29.85 in WNW 5.7 mph 11.5 mph 63 % 0.00 in
14:17 48.5 °F 35.7 °F 29.85 in West 4.4 mph 6.9 mph 61 % 0.00 in
14:22 48.6 °F 34.9 °F 29.85 in WSW 4.4 mph 6.9 mph 59 % 0.00 in
14:27 48.7 °F 35.8 °F 29.85 in SW 4.3 mph 6.9 mph 61 % 0.00 in
14:32 48.9 °F 36.9 °F 29.85 in SSW 3.0 mph 9.2 mph 63 % 0.00 in
14:37 49.0 °F 36.5 °F 29.85 in WSW 1.4 mph 4.6 mph 62 % 0.00 in
14:42 49.0 °F 36.1 °F 29.86 in WSW 8.3 mph 12.7 mph 61 % 0.00 in
14:47 48.8 °F 35.9 °F 29.87 in SW 3.6 mph 12.7 mph 61 % 0.00 in
14:52 48.7 °F 35.8 °F 29.86 in WSW 2.5 mph 8.1 mph 61 % 0.00 in
14:57 48.6 °F 35.7 °F 29.86 in WSW 3.7 mph 8.0 mph 61 % 0.00 in
15:02 48.6 °F 35.7 °F 29.86 in SW 6.8 mph 8.1 mph 61 % 0.00 in
15:08 48.6 °F 35.7 °F 29.86 in SW 3.6 mph 10.4 mph 61 % 0.00 in
15:13 48.6 °F 35.3 °F 29.86 in SSW 5.3 mph 6.9 mph 60 % 0.00 in
15:18 48.6 °F 35.7 °F 29.86 in WSW 2.8 mph 6.9 mph 61 % 0.00 in
15:23 48.6 °F 35.7 °F 29.86 in WSW 4.9 mph 10.4 mph 61 % 0.00 in
15:28 48.5 °F 35.7 °F 29.86 in WSW 6.8 mph 10.4 mph 61 % 0.00 in
15:33 48.5 °F 36.5 °F 29.86 in West 2.5 mph 4.0 mph 63 % 0.00 in
15:38 48.6 °F 36.6 °F 29.85 in SW 2.0 mph 4.6 mph 63 % 0.00 in
15:43 48.6 °F 36.2 °F 29.85 in SW 2.8 mph 4.6 mph 62 % 0.00 in
15:48 48.7 °F 36.7 °F 29.85 in WSW 0.4 mph 3.5 mph 63 % 0.00 in
15:53 48.7 °F 36.3 °F 29.86 in WSW 3.8 mph 7.0 mph 62 % 0.00 in
15:59 48.7 °F 35.4 °F 29.86 in West 3.8 mph 4.6 mph 60 % 0.00 in
16:04 48.7 °F 35.8 °F 29.86 in West 2.3 mph 7.0 mph 61 % 0.00 in
16:09 48.8 °F 35.5 °F 29.87 in West 2.6 mph 4.6 mph 60 % 0.00 in
16:14 48.8 °F 35.1 °F 29.87 in West 0.7 mph 3.5 mph 59 % 0.00 in
16:19 48.9 °F 35.2 °F 29.87 in WSW 1.4 mph 3.5 mph 59 % 0.00 in
16:24 48.8 °F 35.9 °F 29.87 in WSW 0.6 mph 3.5 mph 61 % 0.00 in
16:29 48.8 °F 35.5 °F 29.88 in WSW 2.2 mph 3.5 mph 60 % 0.00 in
16:34 48.8 °F 35.9 °F 29.87 in SW 0.8 mph 3.0 mph 61 % 0.00 in
16:39 48.8 °F 36.4 °F 29.86 in SW 0.1 mph 2.3 mph 62 % 0.00 in
16:44 48.7 °F 35.4 °F 29.86 in Calm     60 % 0.00 in
16:49 48.8 °F 36.4 °F 29.88 in West 1.1 mph 2.3 mph 62 % 0.00 in
16:54 48.7 °F 37.5 °F 29.88 in West 0.2 mph 2.3 mph 65 % 0.00 in
16:59 48.7 °F 37.1 °F 29.88 in SW 0.8 mph 3.5 mph 64 % 0.00 in
17:04 48.5 °F 36.9 °F 29.88 in SW 0.3 mph 3.5 mph 64 % 0.00 in
17:09 48.4 °F 37.2 °F 29.87 in Calm     65 % 0.00 in
17:14 48.3 °F 36.7 °F 29.88 in Calm   1.2 mph 64 % 0.00 in
17:19 48.2 °F 36.6 °F 29.88 in Calm     64 % 0.00 in
17:24 48.0 °F 36.0 °F 29.88 in Calm     63 % 0.00 in
17:29 47.8 °F 36.2 °F 29.89 in SW 0.2 mph 2.3 mph 64 % 0.00 in
17:34 47.7 °F 36.5 °F 29.89 in Calm   1.2 mph 65 % 0.00 in
17:40 47.4 °F 36.2 °F 29.89 in Calm     65 % 0.00 in
17:45 47.2 °F 36.4 °F 29.90 in SW 0.1 mph 2.0 mph 66 % 0.00 in
17:50 46.9 °F 36.5 °F 29.89 in SW 1.8 mph 3.5 mph 67 % 0.00 in
17:55 46.7 °F 36.7 °F 29.89 in SW 0.1 mph 1.2 mph 68 % 0.00 in
18:00 46.5 °F 36.5 °F 29.90 in Calm     68 % 0.00 in
18:05 46.3 °F 36.7 °F 29.90 in SW 0.2 mph 1.2 mph 69 % 0.00 in
18:10 46.1 °F 36.5 °F 29.90 in SW 0.7 mph 2.3 mph 69 % 0.00 in
18:15 45.8 °F 35.8 °F 29.90 in SW 1.0 mph 2.3 mph 68 % 0.00 in
18:20 45.5 °F 36.3 °F 29.91 in Calm     70 % 0.00 in
18:25 45.2 °F 36.0 °F 29.91 in Calm     70 % 0.00 in
18:30 45.0 °F 35.8 °F 29.91 in SW 1.0 mph 2.3 mph 70 % 0.00 in
18:35 44.6 °F 35.8 °F 29.91 in SW 0.9 mph 2.3 mph 71 % 0.00 in
18:40 44.4 °F 35.6 °F 29.91 in SW 0.3 mph 2.3 mph 71 % 0.00 in
18:45 44.1 °F 34.9 °F 29.91 in SW 0.7 mph 2.3 mph 70 % 0.00 in
18:50 43.9 °F 34.7 °F 29.91 in WSW 1.6 mph 3.5 mph 70 % 0.00 in
18:55 43.6 °F 34.1 °F 29.91 in WSW 2.4 mph 3.5 mph 69 % 0.00 in
19:00 43.4 °F 33.9 °F 29.92 in WSW 0.7 mph 3.5 mph 69 % 0.00 in
19:05 43.3 °F 33.8 °F 29.92 in Calm   1.2 mph 69 % 0.00 in
19:10 43.3 °F 34.2 °F 29.92 in Calm   2.3 mph 70 % 0.00 in
19:16 43.2 °F 34.4 °F 29.92 in SW 2.0 mph 4.0 mph 71 % 0.00 in
19:21 43.2 °F 34.8 °F 29.92 in Calm   2.0 mph 72 % 0.00 in
19:26 43.1 °F 34.7 °F 29.92 in SW 1.0 mph 4.0 mph 72 % 0.00 in
19:31 42.9 °F 34.5 °F 29.92 in SSW 1.0 mph 3.0 mph 72 % 0.00 in
19:36 42.8 °F 34.7 °F 29.93 in SSW 0.3 mph 2.3 mph 73 % 0.00 in
19:41 42.6 °F 34.5 °F 29.93 in Calm   1.0 mph 73 % 0.00 in
19:46 42.4 °F 34.3 °F 29.93 in SSW 1.0 mph 2.0 mph 73 % 0.00 in
19:51 42.2 °F 34.2 °F 29.93 in SW 2.0 mph 4.0 mph 73 % 0.00 in
19:56 42.0 °F 33.9 °F 29.93 in SW 1.0 mph 4.0 mph 73 % 0.00 in
20:01 41.8 °F 33.8 °F 29.93 in SW 1.0 mph 3.5 mph 73 % 0.00 in
20:06 41.6 °F 33.6 °F 29.93 in SSW 1.1 mph 2.3 mph 73 % 0.00 in
20:11 41.5 °F 33.5 °F 29.93 in SW 1.2 mph 3.5 mph 73 % 0.00 in
20:16 41.5 °F 33.8 °F 29.94 in Calm   2.3 mph 74 % 0.00 in
20:21 41.3 °F 33.6 °F 29.94 in WSW 1.4 mph 2.3 mph 74 % 0.00 in
20:26 41.3 °F 33.3 °F 29.94 in WSW 0.6 mph 3.5 mph 73 % 0.00 in
20:31 41.2 °F 32.9 °F 29.94 in West 0.4 mph 2.3 mph 72 % 0.00 in
20:36 41.2 °F 32.9 °F 29.94 in West 2.5 mph 6.0 mph 72 % 0.00 in
20:41 41.3 °F 32.2 °F 29.94 in West 0.5 mph 2.0 mph 70 % 0.00 in
20:46 41.3 °F 32.2 °F 29.95 in West 0.3 mph 2.3 mph 70 % 0.00 in
20:51 41.4 °F 32.7 °F 29.95 in WSW 0.9 mph 3.5 mph 71 % 0.00 in
20:56 41.5 °F 32.4 °F 29.96 in WSW 1.6 mph 3.5 mph 70 % 0.00 in
21:01 41.6 °F 32.2 °F 29.95 in West 1.5 mph 3.5 mph 69 % 0.00 in
21:06 41.7 °F 32.3 °F 29.96 in WSW 0.9 mph 2.3 mph 69 % 0.00 in
21:11 41.8 °F 32.0 °F 29.96 in SW 1.9 mph 4.6 mph 68 % 0.00 in
21:16 41.8 °F 31.6 °F 29.96 in WSW 1.7 mph 2.3 mph 67 % 0.00 in
21:21 41.9 °F 31.7 °F 29.96 in West 1.2 mph 3.5 mph 67 % 0.00 in
21:26 41.9 °F 31.7 °F 29.95 in West 2.6 mph 5.8 mph 67 % 0.00 in
21:32 41.9 °F 31.4 °F 29.95 in WSW 0.6 mph 2.3 mph 66 % 0.00 in
21:37 41.9 °F 31.4 °F 29.96 in West 1.5 mph 5.0 mph 66 % 0.00 in
21:42 41.8 °F 31.3 °F 29.96 in WSW 0.4 mph 3.5 mph 66 % 0.00 in
21:47 41.9 °F 31.4 °F 29.96 in WSW 0.5 mph 2.3 mph 66 % 0.00 in
21:52 41.8 °F 31.6 °F 29.96 in WSW 0.5 mph 2.0 mph 67 % 0.00 in
21:57 41.8 °F 30.9 °F 29.96 in WSW 1.4 mph 3.5 mph 65 % 0.00 in
22:02 41.7 °F 30.8 °F 29.97 in WSW 0.2 mph 3.5 mph 65 % 0.00 in
22:07 41.6 °F 31.1 °F 29.97 in WSW 1.2 mph 3.5 mph 66 % 0.00 in
22:12 41.4 °F 30.9 °F 29.97 in WSW 0.2 mph 2.3 mph 66 % 0.00 in
22:17 41.3 °F 30.4 °F 29.97 in WNW 0.6 mph 2.3 mph 65 % 0.00 in
22:22 41.2 °F 30.3 °F 29.97 in West 1.0 mph 2.3 mph 65 % 0.00 in
22:27 41.1 °F 30.2 °F 29.97 in West 0.9 mph 2.3 mph 65 % 0.00 in
22:32 41.0 °F 30.1 °F 29.97 in Calm   2.3 mph 65 % 0.00 in
22:37 40.8 °F 31.1 °F 29.98 in Calm     68 % 0.00 in
22:42 40.5 °F 31.1 °F 29.98 in Calm     69 % 0.00 in
22:47 40.2 °F 31.2 °F 29.98 in Calm     70 % 0.00 in
22:52 39.9 °F 31.3 °F 29.98 in Calm     71 % 0.00 in
22:57 39.5 °F 30.9 °F 29.98 in Calm     71 % 0.00 in
23:03 39.0 °F 30.7 °F 29.99 in Calm     72 % 0.00 in
23:08 38.7 °F 31.1 °F 29.99 in Calm     74 % 0.00 in
23:13 38.4 °F 31.2 °F 30.00 in Calm     75 % 0.00 in
23:18 37.9 °F 31.0 °F 29.99 in Calm   1.2 mph 76 % 0.00 in
23:23 37.6 °F 31.0 °F 29.99 in West 1.1 mph 3.5 mph 77 % 0.00 in
23:28 37.3 °F 30.7 °F 29.99 in WNW 0.8 mph 3.5 mph 77 % 0.00 in
23:33 37.1 °F 30.6 °F 29.99 in WNW 1.3 mph 3.5 mph 77 % 0.00 in
23:38 37.0 °F 30.5 °F 30.00 in WNW 1.7 mph 3.5 mph 77 % 0.00 in
23:43 36.9 °F 30.7 °F 30.00 in West 1.3 mph 3.5 mph 78 % 0.00 in
23:48 36.9 °F 30.7 °F 30.00 in WSW 2.5 mph 3.5 mph 78 % 0.00 in
23:53 36.9 °F 31.0 °F 30.00 in WSW 1.3 mph 2.3 mph 79 % 0.00 in
23:58 36.9 °F 31.0 °F 30.00 in WSW 1.1 mph 2.3 mph 79 % 0.00 in
Crab Meadow Weather
Compliments of Weather Underground - 3 mb

Script developed by  Jim McMurry - jmcmurry@mwt.net Adapted for the template by  Wim van der Kuil - Leuven-Template.eu

Weather Terms: Heat Advisory - Maximum heat index of 105 to 110°F with a minimum of 75°F for two or more consecutive days.